Location: *
(37.5724°S, 58.0067°E)
Time: 11:27:31
(UTC+00:00)

CSL-04 Rocket - Pass Details

Date: 26 September 2020
Orbit: 806 x 860 km, 98.9° (Epoch: 29 October)

Event Time Altitude Azimuth Distance (km) Brightness Sun altitude
Rises 15:44:31 0° 163° (SSE) 3,359 6.8 -19.6°
Reaches altitude 10° 15:46:55 10° 158° (SSE) 2,423 6.0 -20.0°
Maximum altitude 15:52:12 59° 79° (E) 949 3.6 -21.0°
Drops below altitude 10° 15:57:28 10° 359° (N) 2,416 5.9 -22.0°
Sets 15:59:51 0° 355° (N) 3,348 6.7 -22.4°
